SCP
0 0 0 0 0 0 0 0 0 0 0 0 0 0 0 0 0 0 0 0 0 0 0 0 0 0 0 0 0 0 0 0 0 0 0 0 0 0 0 0 0 0 0 0 0 0 0 0 0 0 0 0 0 0
0 0 0 0 0 0 0 0 0 0 0 0 0 0 0 0 0 0 0 0 0 0 0 0 0 0 0 0 0 0 0 0 0 0 0 0 0 0 0 0 0 0 0 0 0 0 0 0 0 0 0 0 0 0
0 0 0 0 0 0 0 0 0 0 0 0 0 0 0 0 0 0 0 0 0 0 0 0 0 0 0 0 0 0 0 0 0 0 0 0 0 0 0 0 0 0 0 0 0 0 0 0 0 0 0 0 0 0
0 0 0 0 0 0 0 0 0 0 0 0 0 0 0 0 0 0 0 0 0 0 0 0 0 0 0 0 0 0 0 0 0 0 0 0 0 0 0 0 0 0 0 0 0 0 0 0 0 0 0 0 0 0
0 0 0 0 0 0 0 0 0 0 0 0 0 0 0 0 0 0 0 0 0 0 0 0 0 0 0 0 0 0 0 0 0 0 0 0 0 0 0 0 0 0 0 0 0 0 0 0 -0 0 0 0 0 0
0 0 0 0 0 0 0 0 0 0 0 0 0 0 0 0 0 0 0 0 0 0 0 0 0 0 0 0 0 0 0 0 0 0 0 0 0 0 0 0 0 0 0 0 0 0 0 0 0 0 0 0 0 0
0 0 0 0 0 0 0 0 0 0 0 0 0 0 0 0 0 0 0 0 0 0 0 0 0 0 0 0 0 0 0 0 0 0 0 0 0 0 0 0 0 -0 -0 0 0 0 0 0 0 0 0 0 0 0
0 0 0 0 0 0 0 0 0 0 0 0 0 -0 0 0 0 0 0 0 0 0 0 0 0 0 0 0 0 0 0 0 0 0 0 0 0 0 0 0 0 0 0 0 0 0 0 0 0 0 0 0 0 0
0 0 0 0 0 0 0 0 0 0 0 0 0 0 0 0 0 0 0 0 0 0 0 0 0 0 0 0 0 0 0 0 0 0 0 0 0 0 0 0 0 0 0 0 0 0 0 0 0 0 0 0 0 0
0 0 0 0 0 0 0 0 0 0 0 0 0 0 0 0 0 0 0 0 0 0 0 0 0 0 0 0 0 0 0 0 0 0 0 0 0 0 0 0 0 0 0 0 0 0 0 0 0 0 0 0 0 0
0 0 0 0 0 0 0 0 0 0 0 0 0 0 0 0 0 0 0 0 0 0 0 0 0 0 0 0 0 0 0 0 0 0 0 0 0 0 0 0 0 0 0 0 0 0 0 0 0 0 0 0 0 0
0 0 0 0 -0 0 0 0 0 0 0 0 0 0 0 0 0 0 0 0 0 0 0 0 0 0 0 0 0 0 0 0 0 0 0 0 0 0 0 0 0 0 0 0 0 0 0 0 0 0 0 0 0 0
0 0 0 -0 -0 0 0 0 0 0 0 0 0 0 0 0 0 0 0 0 0 0 0 0 0 0 0 0 0 0 0 0 0 0 0 0 0 0 0 0 0 0 0 0 0 0 0 0 0 0 0 0 0 0
0 0 -0 -0 -0 -0 0 0 0 0 0 0 0 0 0 0 0 0 0 0 0 0 0 0 0 0 0 0 0 0 0 0 0 0 0 0 0 0 0 0 0 0 0 0 0 0 0 0 0 0 0 0 0 0
0 -0 -0 -0 -0 -0 0 0 0 0 0 0 0 0 0 0 0 0 0 0 0 0 0 0 0 0 0 0 0 0 0 0 0 0 0 0 0 0 0 0 0 0 0 0 0 0 0 0 0 0 0 0 0 0
0 -0 0 -0 -0 -0 0 -0 0 0 0 0 0 0 0 0 0 0 0 0 0 0 0 0 0 0 0 0 0 0 0 0 0 0 0 0 0 0 0 0 0 0 0 0 0 0 0 0 0 0 0 0 0 0
0 0 -0 0 0 0 -0 0 0 0 0 0 0 0 0 0 0 0 0 0 0 0 0 0 0 0 0 0 0 0 0 0 0 0 0 0 0 0 0 0 0 0 0 0 0 0 0 0 0 0 0 0 0 0
0 0 0 0 0 0 0 0 0 0 0 0 0 0 0 0 0 0 0 0 0 0 0 0 0 0 0 0 0 0 0 0 0 0 0 0 0 0 0 0 0 0 0 0 0 0 0 0 0 0 0 0 0 0
0 0 0 0 0 0 0 0 0 0 0 0 0 0 0 0 0 0 0 0 0 0 0 0 0 0 0 0 0 0 0 0 0 0 0 0 0 0 0 0 0 0 0 0 0 0 0 0 0 0 0 0 0 0
-0 0 0 0 0 0 0 0 0 0 0 0 0 0 0 0 0 0 0 0 0 0 0 0 0 0 0 0 0 0 0 0 0 0 0 0 0 0 0 0 0 0 0 0 0 0 0 0 0 0 0 0 0 0
0 0 0 -0 0 0 0 0 0 0 0 0 0 0 0 0 0 0 0 0 0 0 0 0 0 0 0 0 0 0 0 0 0 0 0 0 0 0 0 0 0 0 0 0 0 0 0 0 0 0 0 0 0 0
0 0 -0 -0 0 0 0 0 0 0 0 0 0 0 0 0 0 0 0 0 0 0 0 0 0 0 0 0 0 0 0 0 0 0 0 0 0 0 0 0 0 0 0 0 0 0 0 0 0 0 0 0 0 0
0 0 0 0 0 0 0 0 0 0 0 0 0 0 0 0 0 0 0 0 0 0 0 0 0 0 0 0 0 0 0 0 0 0 0 0 0 0 0 0 0 0 0 0 0 0 0 0 0 0 0 0 0 0
0 0 0 0 0 0 0 0 0 0 0 0 0 0 0 0 0 0 0 0 0 0 0 0 0 0 0 0 0 0 0 0 0 0 0 0 0 0 0 0 0 0 0 0 0 0 0 0 0 0 0 0 0 0
0 0 0 0 0 0 0 0 0 0 0 0 0 0 0 0 0 0 0 0 0 0 0 0 0 0 0 0 0 0 0 0 0 0 0 0 0 0 0 0 0 0 0 0 0 0 0 0 0 0 0 0 0 0
0 0 0 0 0 0 0 0 0 0 0 0 0 0 0 0 0 0 0 0 0 0 0 0 0 0 0 0 0 0 0 0 0 0 0 0 0 0 0 0 0 0 0 0 0 0 0 0 0 0 0 0 0 0
0 0 0 0 0 0 0 0 0 0 0 0 0 0 0 0 0 0 0 0 0 0 0 0 0 0 0 0 0 0 0 0 0 0 0 0 0 0 0 0 0 0 0 0 0 0 0 0 0 0 0 0 0 0
0 0 0 0 0 0 0 0 0 0 0 0 0 0 0 0 0 0 0 0 0 0 0 0 0 0 0 0 0 0 0 0 0 0 0 0 0 0 0 0 0 0 0 0 0 0 0 0 0 0 0 0 0 0
0 0 0 0 0 0 0 0 0 0 0 0 0 0 0 0 0 0 0 0 0 0 0 0 0 0 0 0 0 0 0 0 0 0 0 0 0 0 0 0 0 0 0 0 0 0 0 0 0 0 0 0 0 0
0 0 0 0 -0 0 0 0 0 0 0 0 0 0 0 0 0 0 0 0 0 0 0 0 0 0 0 0 0 0 0 0 0 0 0 0 0 0 0 0 0 0 0 0 0 0 0 0 0 0 0 0 0 0
-0 -0 -0 -0 -0 0 0 0 0 0 0 0 0 0 0 0 0 0 0 0 0 0 0 0 0 0 0 0 0 0 0 0 0 0 0 0 0 0 0 0 0 0 0 0 0 0 0 0 0 0 0 0 0 0
-0 -0 0 -0 0 0 0 0 0 0 0 0 0 0 0 0 0 0 0 0 0 0 0 0 0 0 0 0 0 0 0 0 0 0 0 0 0 0 0 0 0 0 0 0 0 0 0 0 0 0 0 0 0 0
-0 -0 -0 0 0 0 0 0 0 0 0 0 0 0 0 0 0 0 0 0 -0 -0 -0 0 0 0 0 0 0 0 0 0 0 0 0 0 0 0 0 0 0 0 0 0 0 0 0 0 0 0 0 0 0 0
Wind_Speed_500mb
38 41 43 45 44 47 45 49 50 41 44 43 38 36 37 35 25 24 21 25 21 9 10 20 12 13 15 12 7 13 11 3 3 8 6 6 6 9 5 3 9 17 18 9 7 9 18 17 12 17 7 15 31 34
40 42 45 49 47 44 47 49 49 47 48 42 41 39 39 46 44 36 29 28 24 10 5 19 25 18 11 24 20 26 3 6 11 6 3 6 5 4 8 9 2 7 6 8 12 4 4 37 6 15 29 34 34 41
41 45 42 42 44 48 47 43 52 48 39 52 46 43 42 45 53 54 40 35 29 14 7 13 13 25 24 20 23 16 9 12 8 10 6 4 5 5 8 6 4 7 7 5 6 5 3 35 6 24 23 28 39 39
42 38 37 39 44 45 45 44 46 48 48 44 49 50 46 42 50 69 48 41 29 13 6 5 15 16 23 23 20 16 15 22 24 13 5 4 4 7 5 3 7 3 15 12 3 3 6 22 37 32 35 30 37 33
42 40 41 46 47 46 45 49 49 52 46 44 47 48 48 45 48 49 42 34 32 13 9 5 9 13 19 26 24 20 15 21 11 5 4 4 7 7 2 2 8 15 12 9 6 28 15 20 48 48 40 45 41 41
38 36 45 48 42 45 43 43 45 49 49 44 46 54 50 46 43 51 27 57 47 39 10 5 5 6 16 27 29 22 30 19 10 9 5 4 6 6 8 7 2 21 30 22 11 28 28 16 23 30 39 50 50 49
33 36 39 31 32 37 38 37 37 46 41 43 39 45 48 46 49 59 17 17 64 49 16 6 3 5 23 30 22 25 21 11 8 9 5 8 6 8 0 8 18 27 30 25 18 22 26 26 23 26 30 31 34 39
33 34 35 30 30 31 37 34 36 40 42 35 36 45 44 44 44 47 41 24 61 44 19 8 4 8 22 8 9 12 10 9 6 9 9 5 9 3 8 6 23 25 19 21 24 28 28 25 25 32 32 30 30 36
32 36 39 35 33 32 32 33 37 40 40 35 33 32 34 39 26 56 48 34 68 23 14 8 15 11 25 8 11 8 8 3 4 4 5 11 6 9 15 15 26 34 34 37 28 40 40 40 42 41 39 39 42 45
36 37 39 43 43 46 38 36 38 40 43 36 35 23 13 17 27 50 54 45 39 20 13 6 16 8 21 11 6 11 6 7 7 6 17 5 7 46 18 33 28 16 20 31 28 32 34 42 43 38 37 34 35 39
36 38 44 53 59 59 55 49 43 42 44 44 22 16 22 66 37 30 10 10 8 5 7 11 12 12 15 7 7 4 7 8 9 8 11 8 7 4 18 7 19 22 26 27 32 35 33 36 37 36 33 32 33 34
32 36 39 66 66 61 66 73 57 59 33 47 18 45 49 14 6 7 8 6 6 9 9 9 12 15 15 13 6 11 5 6 9 15 9 7 4 14 22 14 13 12 12 14 20 24 27 31 34 36 38 34 32 34
28 24 54 80 25 30 48 71 69 69 49 40 21 14 21 8 8 13 12 5 8 10 18 17 10 14 11 8 6 6 8 5 19 8 7 5 5 20 27 21 13 13 13 13 14 17 20 22 26 27 27 25 26 28
17 19 34 72 10 19 48 62 67 59 58 13 11 9 9 9 10 7 6 8 8 28 42 30 11 7 9 5 5 9 4 7 9 10 8 3 15 23 23 22 20 15 11 10 9 9 10 11 13 14 16 16 16 18
20 25 24 50 50 28 49 63 65 65 16 6 8 7 5 6 14 13 18 17 14 48 57 20 12 9 3 8 5 8 5 7 8 7 4 5 16 20 21 19 17 16 12 7 4 2 2 6 7 8 11 11 12 14
25 39 50 49 52 31 74 69 67 22 10 8 12 6 3 9 3 9 20 16 37 49 27 15 6 6 3 9 7 8 16 11 6 5 3 6 12 15 16 18 17 15 12 10 9 9 9 12 12 13 17 19 20 19
44 46 39 31 38 46 43 65 31 15 10 8 6 16 3 15 11 11 14 12 37 19 5 6 9 8 7 6 5 7 4 5 5 8 9 11 13 15 13 13 13 13 11 11 12 14 14 17 20 19 18 22 20 19
42 34 30 28 17 26 51 23 15 14 13 15 8 10 28 22 16 19 15 19 6 9 9 5 11 5 5 9 5 5 11 9 9 9 12 13 12 10 11 9 8 7 8 11 14 17 18 15 17 21 20 19 17 16
34 32 30 26 19 12 12 18 15 10 11 10 16 20 25 27 44 33 30 30 29 24 15 12 14 7 6 8 8 8 10 9 6 6 9 12 11 10 9 11 10 8 8 11 12 13 14 14 14 15 14 13 9 8
30 26 31 28 12 12 12 13 11 16 6 9 14 15 18 18 21 45 50 42 38 21 20 13 7 6 6 8 7 7 7 8 8 5 3 12 10 8 7 7 9 10 11 12 12 12 12 10 10 9 7 6 4 2
22 30 28 19 29 29 17 14 17 13 11 13 9 11 14 24 25 32 32 32 30 17 8 12 13 13 10 5 8 8 7 7 5 2 2 4 6 7 8 9 10 10 10 10 9 9 7 5 4 2 1 2 3 4
20 19 20 25 20 16 20 26 12 9 9 10 10 15 15 6 13 21 16 36 16 14 14 20 21 13 10 10 11 10 9 7 8 7 5 6 7 8 9 10 11 9 8 7 6 6 4 3 1 2 3 5 7 8
16 15 17 22 13 17 8 16 11 14 7 5 8 8 7 7 11 16 15 16 13 23 24 21 14 16 17 17 16 15 15 13 12 14 14 16 14 12 12 11 10 9 8 8 6 4 2 2 4 6 7 9 10 11
17 17 21 18 28 7 9 14 12 10 10 8 7 7 7 8 10 14 8 9 19 26 28 26 19 18 21 24 26 24 23 23 19 18 18 17 15 15 14 13 13 11 9 7 5 4 5 6 7 10 12 13 15 16
16 25 19 16 23 14 13 10 13 10 9 10 8 8 6 10 7 8 6 11 24 29 26 25 26 25 25 25 23 23 20 18 21 23 22 18 17 15 13 13 12 12 10 9 9 9 11 12 13 14 16 17 19 21
18 23 15 16 15 10 8 8 10 13 7 8 9 5 8 7 9 8 3 17 15 22 23 28 30 29 30 27 24 21 17 14 16 18 23 19 16 12 11 10 10 11 12 12 12 12 14 16 17 18 19 21 24 27
14 10 16 23 11 8 10 15 14 10 11 11 7 7 6 10 8 3 5 18 14 18 23 24 27 31 32 30 25 21 18 18 15 14 11 10 9 12 15 16 16 18 18 19 20 21 21 21 22 24 27 26 27 31
15 25 12 28 19 25 8 8 11 11 8 13 4 11 7 6 3 5 10 13 16 17 16 20 22 23 23 22 18 14 12 11 6 2 5 9 14 13 14 21 23 27 29 29 29 31 32 33 35 36 37 39 39 38
16 33 13 13 14 19 17 10 9 9 14 5 4 5 7 11 17 21 21 20 16 14 16 15 16 15 14 14 17 17 15 12 9 11 16 21 22 20 28 31 31 31 34 36 36 38 37 33 40 47 48 50 52 53
23 33 9 14 10 11 19 18 25 31 36 33 36 56 47 43 33 24 21 19 19 22 22 23 26 27 28 27 23 19 21 21 19 26 31 33 36 37 39 39 39 40 40 40 42 43 43 44 46 48 51 54 55 57
19 19 16 18 12 19 33 41 43 43 46 48 47 50 39 31 38 41 42 34 24 20 21 27 31 34 34 33 33 32 26 21 23 25 27 31 33 36 38 40 41 44 45 46 47 50 52 53 52 53 53 53 51 51
19 17 8 6 5 11 14 17 17 19 17 17 15 13 7 5 5 5 19 38 43 39 37 37 39 39 34 31 32 33 33 33 32 31 33 34 37 39 42 43 45 48 50 52 53 54 54 56 58 58 59 60 59 58
11 17 15 8 7 7 13 7 4 5 6 5 6 6 6 4 3 1 8 25 52 49 35 33 36 36 34 33 33 31 34 35 34 33 34 36 40 42 45 47 52 54 57 59 58 57 58 57 58 57 57 58 59 59
Wind_Direction_500mb
275 278 276 275 272 266 258 255 261 265 246 243 242 230 230 226 220 204 201 195 206 212 222 203 175 158 143 154 157 143 110 152 153 189 170 159 150 190 117 121 170 171 168 184 157 210 248 146 108 176 155 126 158 179
280 281 276 273 271 270 262 254 253 260 242 240 243 234 226 224 228 209 199 190 186 191 249 223 211 182 168 169 131 163 20 156 164 138 142 118 131 168 140 178 215 206 192 176 206 197 48 172 82 173 147 165 182 183
273 278 280 277 271 264 257 255 246 253 263 237 237 236 229 220 225 219 206 185 169 171 206 222 223 224 207 180 169 139 195 171 160 121 125 111 124 161 159 192 148 239 167 157 166 163 171 185 126 174 182 202 190 181
273 276 284 286 277 273 257 253 250 245 255 239 233 231 228 220 213 215 192 187 183 150 150 208 211 205 216 205 192 195 168 160 146 113 86 123 123 221 181 113 215 140 143 133 76 356 13 212 211 203 206 199 189 191
273 272 280 283 277 270 259 251 252 241 243 242 230 226 223 216 208 222 231 199 209 191 162 179 170 196 204 200 200 217 211 181 132 96 97 130 129 136 12 276 235 187 152 166 187 181 170 202 217 220 214 210 204 209
270 277 283 278 265 266 264 261 251 231 235 234 229 229 211 211 198 200 200 220 205 199 149 164 166 162 180 184 185 170 171 169 138 124 117 157 189 168 163 215 50 158 170 166 156 169 189 186 194 209 228 234 234 230
262 273 289 282 276 257 259 260 244 225 231 228 234 222 206 202 203 187 193 210 198 202 151 131 129 123 149 148 153 163 167 148 139 125 124 144 146 161 269 236 147 177 176 176 172 166 206 214 215 231 241 245 253 246
265 275 283 282 275 272 261 263 244 228 224 227 220 230 211 205 204 211 194 184 187 173 169 146 111 155 167 127 116 142 138 146 144 128 131 136 126 135 246 134 160 169 193 223 220 224 239 252 253 252 251 248 251 255
273 275 280 288 289 281 274 264 244 223 218 219 216 210 207 203 203 205 208 188 174 176 160 139 152 177 166 122 119 118 133 140 163 138 169 147 153 222 230 195 212 216 214 239 240 237 239 252 261 260 259 253 255 257
277 277 276 279 275 276 268 263 234 220 207 209 202 173 188 183 192 162 160 172 191 207 157 113 136 144 167 143 126 127 148 150 165 203 136 186 240 248 278 266 273 285 262 245 246 231 238 250 255 262 266 266 266 268
272 275 277 282 274 261 248 249 226 213 200 196 210 151 159 139 147 176 169 168 140 149 140 126 147 131 180 143 131 194 155 161 168 185 174 183 256 41 345 303 267 265 264 263 258 265 265 265 270 273 268 265 258 254
268 277 282 320 282 255 240 226 211 203 200 186 181 135 153 158 146 194 146 131 151 155 141 131 142 119 139 142 122 160 150 154 185 140 156 196 228 7 355 347 329 309 295 277 267 266 261 259 262 267 270 265 255 250
275 281 268 339 270 238 210 196 190 198 184 178 192 157 146 150 167 175 173 152 139 161 157 156 128 122 119 142 120 140 151 155 120 163 201 222 37 350 349 343 338 326 321 306 287 266 258 257 256 254 253 252 247 242
47 345 322 9 166 176 174 175 176 189 171 164 159 187 164 165 181 177 187 154 118 136 131 121 109 134 133 121 131 117 69 144 174 184 230 41 345 342 355 354 344 346 330 323 311 283 256 240 241 237 230 224 220 218
32 29 7 7 32 176 177 174 175 174 165 108 136 168 211 112 74 114 103 96 91 132 134 113 75 90 80 107 92 118 127 159 199 213 85 5 346 356 4 10 15 12 16 20 41 69 150 159 166 172 164 168 171 171
66 53 41 19 17 37 182 166 175 140 77 86 48 104 82 77 85 97 99 103 132 135 119 86 100 84 126 129 128 193 146 189 164 114 114 11 15 8 16 24 29 35 41 49 70 91 113 126 134 144 147 145 144 145
65 49 33 28 18 24 126 141 144 78 81 64 61 52 88 71 86 88 85 89 142 125 112 109 106 181 109 105 105 8 95 64 89 93 51 24 19 16 15 25 30 42 53 70 87 103 121 128 128 126 138 136 138 141
49 35 29 25 34 38 50 51 77 70 62 32 71 11 55 59 80 63 69 99 114 90 105 142 123 91 85 130 115 53 54 71 80 57 41 38 44 43 43 41 45 47 67 90 103 114 120 124 136 138 137 137 144 148
34 20 18 24 35 73 57 37 45 89 61 56 72 63 70 72 65 77 83 80 82 86 90 37 56 46 50 36 43 61 43 36 357 2 55 39 43 46 49 56 67 84 106 117 122 127 129 135 129 126 129 130 136 145
30 24 31 26 38 67 78 46 54 84 77 50 52 48 68 69 70 58 65 67 65 49 42 39 43 12 3 338 358 352 353 348 6 86 80 19 29 52 72 89 102 107 109 114 119 120 124 124 122 125 132 135 144 174
25 42 45 60 48 56 71 36 56 65 84 73 49 50 70 57 40 33 34 34 60 38 58 43 5 356 357 29 20 16 5 359 7 350 313 355 36 76 97 107 110 113 121 123 123 121 121 119 119 135 212 273 283 284
59 64 52 51 52 54 58 33 66 69 70 85 55 47 45 42 31 25 41 48 61 29 7 349 355 16 53 49 35 34 38 47 65 65 86 120 120 118 119 115 114 116 115 110 106 97 88 75 40 309 292 286 283 279
83 61 48 32 74 48 12 17 58 31 70 56 58 52 36 53 48 29 71 58 65 10 10 15 49 64 62 60 57 60 62 69 83 87 94 102 108 105 103 106 104 103 98 90 83 69 32 328 302 300 289 279 278 278
63 51 31 35 27 22 7 31 36 42 52 40 52 58 37 39 52 59 70 59 11 25 40 50 77 84 79 73 70 75 76 73 79 91 93 96 106 100 93 89 85 81 76 65 48 17 345 323 310 302 295 290 285 279
74 13 22 5 16 23 27 15 4 27 52 21 66 47 21 43 66 59 66 14 18 31 42 53 63 72 71 70 70 71 77 82 82 87 88 88 87 92 91 83 69 54 38 15 356 344 331 320 311 304 298 294 289 285
66 20 38 1 7 32 360 43 27 16 22 61 45 19 51 63 65 59 55 360 11 27 44 60 63 74 67 65 65 69 70 75 80 89 87 81 81 76 69 59 38 20 9 359 349 339 329 321 313 306 301 298 296 293
44 348 11 19 360 358 57 47 38 47 50 31 357 19 50 64 66 49 37 16 43 64 82 73 66 64 65 64 64 66 69 68 82 101 79 35 21 24 20 10 359 343 337 331 325 320 315 310 304 298 294 293 294 292
50 27 21 347 41 36 54 43 33 24 6 351 338 40 73 78 124 62 58 78 94 96 80 74 66 59 50 45 42 45 49 46 46 12 322 326 335 322 318 333 322 312 308 306 303 300 299 301 299 294 294 294 293 292
30 358 17 20 45 47 42 28 11 346 334 2 64 78 92 73 98 106 102 105 110 103 86 68 52 34 19 4 353 350 353 342 320 308 315 316 313 309 308 309 308 305 299 295 294 294 295 298 289 291 292 293 293 293
359 10 53 39 48 45 17 40 44 60 71 84 102 104 95 91 92 96 95 85 72 58 44 24 9 7 6 3 4 360 345 343 336 329 326 325 324 323 323 322 320 314 310 306 302 299 296 292 289 285 284 285 285 285
10 32 47 48 73 62 73 76 78 85 92 93 101 101 108 106 88 69 57 49 44 26 6 8 10 1 356 353 348 346 352 342 334 332 329 327 326 324 322 320 317 314 314 314 312 310 309 307 306 304 303 301 300 298
33 39 53 74 57 52 77 84 83 95 95 93 96 101 91 98 95 109 37 24 16 8 358 352 348 351 346 339 335 330 329 328 327 324 321 322 323 323 322 321 316 313 312 310 309 308 307 305 303 302 301 300 299 298
44 40 48 57 42 38 18 32 82 105 65 67 59 64 68 64 89 20 357 1 354 345 341 341 340 338 336 328 323 317 313 314 312 312 312 315 317 321 320 319 316 317 313 310 309 307 306 305 303 303 301 300 299 298
Wind_Speed_850mb
38 41 43 45 44 47 45 49 50 41 44 43 38 36 37 35 25 24 21 25 21 9 10 20 12 13 15 12 7 13 11 3 3 8 6 6 6 9 5 3 9 17 18 9 7 9 18 17 12 17 7 15 31 34
40 42 45 49 47 44 47 49 49 47 48 42 41 39 39 46 44 36 29 28 24 10 5 19 25 18 11 24 20 26 3 6 11 6 3 6 5 4 8 9 2 7 6 8 12 4 4 37 6 15 29 34 34 41
41 45 42 42 44 48 47 43 52 48 39 52 46 43 42 45 53 54 40 35 29 14 7 13 13 25 24 20 23 16 9 12 8 10 6 4 5 5 8 6 4 7 7 5 6 5 3 35 6 24 23 28 39 39
42 38 37 39 44 45 45 44 46 48 48 44 49 50 46 42 50 69 48 41 29 13 6 5 15 16 23 23 20 16 15 22 24 13 5 4 4 7 5 3 7 3 15 12 3 3 6 22 37 32 35 30 37 33
42 40 41 46 47 46 45 49 49 52 46 44 47 48 48 45 48 49 42 34 32 13 9 5 9 13 19 26 24 20 15 21 11 5 4 4 7 7 2 2 8 15 12 9 6 28 15 20 48 48 40 45 41 41
38 36 45 48 42 45 43 43 45 49 49 44 46 54 50 46 43 51 27 57 47 39 10 5 5 6 16 27 29 22 30 19 10 9 5 4 6 6 8 7 2 21 30 22 11 28 28 16 23 30 39 50 50 49
33 36 39 31 32 37 38 37 37 46 41 43 39 45 48 46 49 59 17 17 64 49 16 6 3 5 23 30 22 25 21 11 8 9 5 8 6 8 0 8 18 27 30 25 18 22 26 26 23 26 30 31 34 39
33 34 35 30 30 31 37 34 36 40 42 35 36 45 44 44 44 47 41 24 61 44 19 8 4 8 22 8 9 12 10 9 6 9 9 5 9 3 8 6 23 25 19 21 24 28 28 25 25 32 32 30 30 36
32 36 39 35 33 32 32 33 37 40 40 35 33 32 34 39 26 56 48 34 68 23 14 8 15 11 25 8 11 8 8 3 4 4 5 11 6 9 15 15 26 34 34 37 28 40 40 40 42 41 39 39 42 45
36 37 39 43 43 46 38 36 38 40 43 36 35 23 13 17 27 50 54 45 39 20 13 6 16 8 21 11 6 11 6 7 7 6 17 5 7 46 18 33 28 16 20 31 28 32 34 42 43 38 37 34 35 39
36 38 44 53 59 59 55 49 43 42 44 44 22 16 22 66 37 30 10 10 8 5 7 11 12 12 15 7 7 4 7 8 9 8 11 8 7 4 18 7 19 22 26 27 32 35 33 36 37 36 33 32 33 34
32 36 39 66 66 61 66 73 57 59 33 47 18 45 49 14 6 7 8 6 6 9 9 9 12 15 15 13 6 11 5 6 9 15 9 7 4 14 22 14 13 12 12 14 20 24 27 31 34 36 38 34 32 34
28 24 54 80 25 30 48 71 69 69 49 40 21 14 21 8 8 13 12 5 8 10 18 17 10 14 11 8 6 6 8 5 19 8 7 5 5 20 27 21 13 13 13 13 14 17 20 22 26 27 27 25 26 28
17 19 34 72 10 19 48 62 67 59 58 13 11 9 9 9 10 7 6 8 8 28 42 30 11 7 9 5 5 9 4 7 9 10 8 3 15 23 23 22 20 15 11 10 9 9 10 11 13 14 16 16 16 18
20 25 24 50 50 28 49 63 65 65 16 6 8 7 5 6 14 13 18 17 14 48 57 20 12 9 3 8 5 8 5 7 8 7 4 5 16 20 21 19 17 16 12 7 4 2 2 6 7 8 11 11 12 14
25 39 50 49 52 31 74 69 67 22 10 8 12 6 3 9 3 9 20 16 37 49 27 15 6 6 3 9 7 8 16 11 6 5 3 6 12 15 16 18 17 15 12 10 9 9 9 12 12 13 17 19 20 19
44 46 39 31 38 46 43 65 31 15 10 8 6 16 3 15 11 11 14 12 37 19 5 6 9 8 7 6 5 7 4 5 5 8 9 11 13 15 13 13 13 13 11 11 12 14 14 17 20 19 18 22 20 19
42 34 30 28 17 26 51 23 15 14 13 15 8 10 28 22 16 19 15 19 6 9 9 5 11 5 5 9 5 5 11 9 9 9 12 13 12 10 11 9 8 7 8 11 14 17 18 15 17 21 20 19 17 16
34 32 30 26 19 12 12 18 15 10 11 10 16 20 25 27 44 33 30 30 29 24 15 12 14 7 6 8 8 8 10 9 6 6 9 12 11 10 9 11 10 8 8 11 12 13 14 14 14 15 14 13 9 8
30 26 31 28 12 12 12 13 11 16 6 9 14 15 18 18 21 45 50 42 38 21 20 13 7 6 6 8 7 7 7 8 8 5 3 12 10 8 7 7 9 10 11 12 12 12 12 10 10 9 7 6 4 2
22 30 28 19 29 29 17 14 17 13 11 13 9 11 14 24 25 32 32 32 30 17 8 12 13 13 10 5 8 8 7 7 5 2 2 4 6 7 8 9 10 10 10 10 9 9 7 5 4 2 1 2 3 4
20 19 20 25 20 16 20 26 12 9 9 10 10 15 15 6 13 21 16 36 16 14 14 20 21 13 10 10 11 10 9 7 8 7 5 6 7 8 9 10 11 9 8 7 6 6 4 3 1 2 3 5 7 8
16 15 17 22 13 17 8 16 11 14 7 5 8 8 7 7 11 16 15 16 13 23 24 21 14 16 17 17 16 15 15 13 12 14 14 16 14 12 12 11 10 9 8 8 6 4 2 2 4 6 7 9 10 11
17 17 21 18 28 7 9 14 12 10 10 8 7 7 7 8 10 14 8 9 19 26 28 26 19 18 21 24 26 24 23 23 19 18 18 17 15 15 14 13 13 11 9 7 5 4 5 6 7 10 12 13 15 16
16 25 19 16 23 14 13 10 13 10 9 10 8 8 6 10 7 8 6 11 24 29 26 25 26 25 25 25 23 23 20 18 21 23 22 18 17 15 13 13 12 12 10 9 9 9 11 12 13 14 16 17 19 21
18 23 15 16 15 10 8 8 10 13 7 8 9 5 8 7 9 8 3 17 15 22 23 28 30 29 30 27 24 21 17 14 16 18 23 19 16 12 11 10 10 11 12 12 12 12 14 16 17 18 19 21 24 27
14 10 16 23 11 8 10 15 14 10 11 11 7 7 6 10 8 3 5 18 14 18 23 24 27 31 32 30 25 21 18 18 15 14 11 10 9 12 15 16 16 18 18 19 20 21 21 21 22 24 27 26 27 31
15 25 12 28 19 25 8 8 11 11 8 13 4 11 7 6 3 5 10 13 16 17 16 20 22 23 23 22 18 14 12 11 6 2 5 9 14 13 14 21 23 27 29 29 29 31 32 33 35 36 37 39 39 38
16 33 13 13 14 19 17 10 9 9 14 5 4 5 7 11 17 21 21 20 16 14 16 15 16 15 14 14 17 17 15 12 9 11 16 21 22 20 28 31 31 31 34 36 36 38 37 33 40 47 48 50 52 53
23 33 9 14 10 11 19 18 25 31 36 33 36 56 47 43 33 24 21 19 19 22 22 23 26 27 28 27 23 19 21 21 19 26 31 33 36 37 39 39 39 40 40 40 42 43 43 44 46 48 51 54 55 57
19 19 16 18 12 19 33 41 43 43 46 48 47 50 39 31 38 41 42 34 24 20 21 27 31 34 34 33 33 32 26 21 23 25 27 31 33 36 38 40 41 44 45 46 47 50 52 53 52 53 53 53 51 51
19 17 8 6 5 11 14 17 17 19 17 17 15 13 7 5 5 5 19 38 43 39 37 37 39 39 34 31 32 33 33 33 32 31 33 34 37 39 42 43 45 48 50 52 53 54 54 56 58 58 59 60 59 58
11 17 15 8 7 7 13 7 4 5 6 5 6 6 6 4 3 1 8 25 52 49 35 33 36 36 34 33 33 31 34 35 34 33 34 36 40 42 45 47 52 54 57 59 58 57 58 57 58 57 57 58 59 59
Wind_Direction_850mb
275 278 276 275 272 266 258 255 261 265 246 243 242 230 230 226 220 204 201 195 206 212 222 203 175 158 143 154 157 143 110 152 153 189 170 159 150 190 117 121 170 171 168 184 157 210 248 146 108 176 155 126 158 179
280 281 276 273 271 270 262 254 253 260 242 240 243 234 226 224 228 209 199 190 186 191 249 223 211 182 168 169 131 163 20 156 164 138 142 118 131 168 140 178 215 206 192 176 206 197 48 172 82 173 147 165 182 183
273 278 280 277 271 264 257 255 246 253 263 237 237 236 229 220 225 219 206 185 169 171 206 222 223 224 207 180 169 139 195 171 160 121 125 111 124 161 159 192 148 239 167 157 166 163 171 185 126 174 182 202 190 181
273 276 284 286 277 273 257 253 250 245 255 239 233 231 228 220 213 215 192 187 183 150 150 208 211 205 216 205 192 195 168 160 146 113 86 123 123 221 181 113 215 140 143 133 76 356 13 212 211 203 206 199 189 191
273 272 280 283 277 270 259 251 252 241 243 242 230 226 223 216 208 222 231 199 209 191 162 179 170 196 204 200 200 217 211 181 132 96 97 130 129 136 12 276 235 187 152 166 187 181 170 202 217 220 214 210 204 209
270 277 283 278 265 266 264 261 251 231 235 234 229 229 211 211 198 200 200 220 205 199 149 164 166 162 180 184 185 170 171 169 138 124 117 157 189 168 163 215 50 158 170 166 156 169 189 186 194 209 228 234 234 230
262 273 289 282 276 257 259 260 244 225 231 228 234 222 206 202 203 187 193 210 198 202 151 131 129 123 149 148 153 163 167 148 139 125 124 144 146 161 269 236 147 177 176 176 172 166 206 214 215 231 241 245 253 246
265 275 283 282 275 272 261 263 244 228 224 227 220 230 211 205 204 211 194 184 187 173 169 146 111 155 167 127 116 142 138 146 144 128 131 136 126 135 246 134 160 169 193 223 220 224 239 252 253 252 251 248 251 255
273 275 280 288 289 281 274 264 244 223 218 219 216 210 207 203 203 205 208 188 174 176 160 139 152 177 166 122 119 118 133 140 163 138 169 147 153 222 230 195 212 216 214 239 240 237 239 252 261 260 259 253 255 257
277 277 276 279 275 276 268 263 234 220 207 209 202 173 188 183 192 162 160 172 191 207 157 113 136 144 167 143 126 127 148 150 165 203 136 186 240 248 278 266 273 285 262 245 246 231 238 250 255 262 266 266 266 268
272 275 277 282 274 261 248 249 226 213 200 196 210 151 159 139 147 176 169 168 140 149 140 126 147 131 180 143 131 194 155 161 168 185 174 183 256 41 345 303 267 265 264 263 258 265 265 265 270 273 268 265 258 254
268 277 282 320 282 255 240 226 211 203 200 186 181 135 153 158 146 194 146 131 151 155 141 131 142 119 139 142 122 160 150 154 185 140 156 196 228 7 355 347 329 309 295 277 267 266 261 259 262 267 270 265 255 250
275 281 268 339 270 238 210 196 190 198 184 178 192 157 146 150 167 175 173 152 139 161 157 156 128 122 119 142 120 140 151 155 120 163 201 222 37 350 349 343 338 326 321 306 287 266 258 257 256 254 253 252 247 242
47 345 322 9 166 176 174 175 176 189 171 164 159 187 164 165 181 177 187 154 118 136 131 121 109 134 133 121 131 117 69 144 174 184 230 41 345 342 355 354 344 346 330 323 311 283 256 240 241 237 230 224 220 218
32 29 7 7 32 176 177 174 175 174 165 108 136 168 211 112 74 114 103 96 91 132 134 113 75 90 80 107 92 118 127 159 199 213 85 5 346 356 4 10 15 12 16 20 41 69 150 159 166 172 164 168 171 171
66 53 41 19 17 37 182 166 175 140 77 86 48 104 82 77 85 97 99 103 132 135 119 86 100 84 126 129 128 193 146 189 164 114 114 11 15 8 16 24 29 35 41 49 70 91 113 126 134 144 147 145 144 145
65 49 33 28 18 24 126 141 144 78 81 64 61 52 88 71 86 88 85 89 142 125 112 109 106 181 109 105 105 8 95 64 89 93 51 24 19 16 15 25 30 42 53 70 87 103 121 128 128 126 138 136 138 141
49 35 29 25 34 38 50 51 77 70 62 32 71 11 55 59 80 63 69 99 114 90 105 142 123 91 85 130 115 53 54 71 80 57 41 38 44 43 43 41 45 47 67 90 103 114 120 124 136 138 137 137 144 148
34 20 18 24 35 73 57 37 45 89 61 56 72 63 70 72 65 77 83 80 82 86 90 37 56 46 50 36 43 61 43 36 357 2 55 39 43 46 49 56 67 84 106 117 122 127 129 135 129 126 129 130 136 145
30 24 31 26 38 67 78 46 54 84 77 50 52 48 68 69 70 58 65 67 65 49 42 39 43 12 3 338 358 352 353 348 6 86 80 19 29 52 72 89 102 107 109 114 119 120 124 124 122 125 132 135 144 174
25 42 45 60 48 56 71 36 56 65 84 73 49 50 70 57 40 33 34 34 60 38 58 43 5 356 357 29 20 16 5 359 7 350 313 355 36 76 97 107 110 113 121 123 123 121 121 119 119 135 212 273 283 284
59 64 52 51 52 54 58 33 66 69 70 85 55 47 45 42 31 25 41 48 61 29 7 349 355 16 53 49 35 34 38 47 65 65 86 120 120 118 119 115 114 116 115 110 106 97 88 75 40 309 292 286 283 279
83 61 48 32 74 48 12 17 58 31 70 56 58 52 36 53 48 29 71 58 65 10 10 15 49 64 62 60 57 60 62 69 83 87 94 102 108 105 103 106 104 103 98 90 83 69 32 328 302 300 289 279 278 278
63 51 31 35 27 22 7 31 36 42 52 40 52 58 37 39 52 59 70 59 11 25 40 50 77 84 79 73 70 75 76 73 79 91 93 96 106 100 93 89 85 81 76 65 48 17 345 323 310 302 295 290 285 279
74 13 22 5 16 23 27 15 4 27 52 21 66 47 21 43 66 59 66 14 18 31 42 53 63 72 71 70 70 71 77 82 82 87 88 88 87 92 91 83 69 54 38 15 356 344 331 320 311 304 298 294 289 285
66 20 38 1 7 32 360 43 27 16 22 61 45 19 51 63 65 59 55 360 11 27 44 60 63 74 67 65 65 69 70 75 80 89 87 81 81 76 69 59 38 20 9 359 349 339 329 321 313 306 301 298 296 293
44 348 11 19 360 358 57 47 38 47 50 31 357 19 50 64 66 49 37 16 43 64 82 73 66 64 65 64 64 66 69 68 82 101 79 35 21 24 20 10 359 343 337 331 325 320 315 310 304 298 294 293 294 292
50 27 21 347 41 36 54 43 33 24 6 351 338 40 73 78 124 62 58 78 94 96 80 74 66 59 50 45 42 45 49 46 46 12 322 326 335 322 318 333 322 312 308 306 303 300 299 301 299 294 294 294 293 292
30 358 17 20 45 47 42 28 11 346 334 2 64 78 92 73 98 106 102 105 110 103 86 68 52 34 19 4 353 350 353 342 320 308 315 316 313 309 308 309 308 305 299 295 294 294 295 298 289 291 292 293 293 293
359 10 53 39 48 45 17 40 44 60 71 84 102 104 95 91 92 96 95 85 72 58 44 24 9 7 6 3 4 360 345 343 336 329 326 325 324 323 323 322 320 314 310 306 302 299 296 292 289 285 284 285 285 285
10 32 47 48 73 62 73 76 78 85 92 93 101 101 108 106 88 69 57 49 44 26 6 8 10 1 356 353 348 346 352 342 334 332 329 327 326 324 322 320 317 314 314 314 312 310 309 307 306 304 303 301 300 298
33 39 53 74 57 52 77 84 83 95 95 93 96 101 91 98 95 109 37 24 16 8 358 352 348 351 346 339 335 330 329 328 327 324 321 322 323 323 322 321 316 313 312 310 309 308 307 305 303 302 301 300 299 298
44 40 48 57 42 38 18 32 82 105 65 67 59 64 68 64 89 20 357 1 354 345 341 341 340 338 336 328 323 317 313 314 312 312 312 315 317 321 320 319 316 317 313 310 309 307 306 305 303 303 301 300 299 298